SCP
0 0 0 0 0 0 0 0 0 0 0 0 0 0 0 0 0 0 0 0 0 0
0 0 0 0 0 0 0 0 0 0 0 0 0 0 0 0 0 0 0 0 0 0
0 0 0 0 0 0 0 0 0 0 0 0 0 0 0 0 0 0 0 0 0 0
0 0 0 0 0 0 0 0 0 0 0 0 0 0 0 0 0 0 0 0 0 0
0 0 0 0 0 0 0 0 0 0 0 0 0 0 0 0 0 0 0 0 0 0
0 0 0 0 0 0 0 0 0 0 0 0 0 0 0 0 0 0 0 0 0 0
0 0 0 0 0 0 0 0 0 0 0 0 0 0 0 0 0 0 0 0 0 0
0 0 0 0 0 0 0 0 0 0 0 0 0 0 0 0 0 0 0 0 0 0
0 0 0 0 0 0 0 0 0 0 0 0 0 0 0 0 0 0 0 0 0 0
0 0 0 0 0 0 0 0 0 0 0 0 0 0 0 0 0 0 0 0 0 0
0 0 0 0 0 0 0 0 0 0 0 0 0 0 0 0 0 0 0 0 0 0
0 0 0 0 0 0 0 0 0 0 0 0 0 0 0 0 0 0 0 0 0 0
0 0 0 0 0 0 0 0 0 0 0 0 0 0 0 0 0 0 0 0 0 0
0 0 0 0 0 0 0 0 0 0 0 0 0 0 0 0 0 0 0 0 0 0
Wind_Speed_500mb
66 66 58 48 45 43 39 35 34 29 23 20 15 11 14 17 20 23 25 28 31 35
72 67 58 52 46 43 42 36 31 29 24 18 14 13 14 17 20 23 27 31 34 37
75 66 57 49 46 43 43 39 35 30 23 17 14 13 14 17 20 25 31 34 37 39
69 67 59 52 48 44 44 42 37 30 23 18 15 14 15 18 24 29 33 36 38 39
69 63 58 53 51 50 47 42 35 27 22 17 15 15 17 22 25 29 32 35 37 38
68 65 57 57 57 54 47 40 33 27 22 17 14 15 18 21 25 29 32 33 34 35
68 66 63 62 59 53 46 38 32 25 20 16 14 15 18 21 25 29 30 30 31 31
69 69 67 64 57 50 43 37 31 24 20 16 14 16 18 20 24 26 26 27 27 28
73 73 69 62 55 48 42 36 30 25 21 17 15 17 20 22 23 23 24 23 25 30
74 72 66 60 53 47 41 36 30 26 22 18 17 19 21 19 20 20 21 23 25 28
75 71 65 59 53 48 42 36 30 27 23 21 20 23 22 18 20 19 21 23 26 28
78 74 68 62 54 50 43 36 31 29 27 24 25 24 21 19 20 19 20 22 25 26
83 76 69 61 56 49 43 38 35 33 28 27 28 28 22 23 22 20 20 21 24 25
84 76 68 62 57 50 45 42 38 33 28 30 34 29 28 27 24 22 22 24 23 22
Wind_Direction_500mb
231 233 236 242 242 241 232 226 225 226 215 210 220 249 279 295 304 309 315 320 323 323
225 229 227 233 235 225 218 229 220 208 206 214 232 261 283 298 307 315 322 325 326 326
221 227 221 224 237 217 220 210 201 204 211 228 248 265 288 303 314 324 325 325 325 323
218 217 217 224 224 215 204 198 201 208 218 228 250 272 292 312 323 325 324 325 323 321
211 211 217 217 213 199 199 200 205 212 223 234 256 283 311 320 323 324 323 323 322 323
205 212 215 207 197 197 200 205 210 215 224 242 267 298 311 316 321 320 321 323 324 325
207 214 208 197 196 198 201 208 213 219 233 251 278 297 306 314 317 318 322 324 327 331
205 203 197 196 198 201 204 209 215 223 239 258 277 290 301 310 311 314 319 326 331 336
199 196 196 198 200 203 207 211 218 229 242 253 269 286 296 300 304 313 319 327 335 338
198 198 199 200 203 207 210 215 222 234 242 251 268 281 286 286 298 305 313 325 334 338
202 203 204 205 207 210 214 219 226 236 241 254 267 272 272 281 291 302 315 323 329 334
207 207 208 210 210 213 217 223 230 235 243 255 263 267 272 278 285 295 310 315 320 323
211 211 212 213 214 216 218 224 230 233 242 255 265 268 268 271 277 288 299 312 312 312
213 214 214 216 217 218 221 226 228 233 244 268 267 264 265 269 276 284 292 294 294 295
Wind_Speed_850mb
66 66 58 48 45 43 39 35 34 29 23 20 15 11 14 17 20 23 25 28 31 35
72 67 58 52 46 43 42 36 31 29 24 18 14 13 14 17 20 23 27 31 34 37
75 66 57 49 46 43 43 39 35 30 23 17 14 13 14 17 20 25 31 34 37 39
69 67 59 52 48 44 44 42 37 30 23 18 15 14 15 18 24 29 33 36 38 39
69 63 58 53 51 50 47 42 35 27 22 17 15 15 17 22 25 29 32 35 37 38
68 65 57 57 57 54 47 40 33 27 22 17 14 15 18 21 25 29 32 33 34 35
68 66 63 62 59 53 46 38 32 25 20 16 14 15 18 21 25 29 30 30 31 31
69 69 67 64 57 50 43 37 31 24 20 16 14 16 18 20 24 26 26 27 27 28
73 73 69 62 55 48 42 36 30 25 21 17 15 17 20 22 23 23 24 23 25 30
74 72 66 60 53 47 41 36 30 26 22 18 17 19 21 19 20 20 21 23 25 28
75 71 65 59 53 48 42 36 30 27 23 21 20 23 22 18 20 19 21 23 26 28
78 74 68 62 54 50 43 36 31 29 27 24 25 24 21 19 20 19 20 22 25 26
83 76 69 61 56 49 43 38 35 33 28 27 28 28 22 23 22 20 20 21 24 25
84 76 68 62 57 50 45 42 38 33 28 30 34 29 28 27 24 22 22 24 23 22
Wind_Direction_850mb
231 233 236 242 242 241 232 226 225 226 215 210 220 249 279 295 304 309 315 320 323 323
225 229 227 233 235 225 218 229 220 208 206 214 232 261 283 298 307 315 322 325 326 326
221 227 221 224 237 217 220 210 201 204 211 228 248 265 288 303 314 324 325 325 325 323
218 217 217 224 224 215 204 198 201 208 218 228 250 272 292 312 323 325 324 325 323 321
211 211 217 217 213 199 199 200 205 212 223 234 256 283 311 320 323 324 323 323 322 323
205 212 215 207 197 197 200 205 210 215 224 242 267 298 311 316 321 320 321 323 324 325
207 214 208 197 196 198 201 208 213 219 233 251 278 297 306 314 317 318 322 324 327 331
205 203 197 196 198 201 204 209 215 223 239 258 277 290 301 310 311 314 319 326 331 336
199 196 196 198 200 203 207 211 218 229 242 253 269 286 296 300 304 313 319 327 335 338
198 198 199 200 203 207 210 215 222 234 242 251 268 281 286 286 298 305 313 325 334 338
202 203 204 205 207 210 214 219 226 236 241 254 267 272 272 281 291 302 315 323 329 334
207 207 208 210 210 213 217 223 230 235 243 255 263 267 272 278 285 295 310 315 320 323
211 211 212 213 214 216 218 224 230 233 242 255 265 268 268 271 277 288 299 312 312 312
213 214 214 216 217 218 221 226 228 233 244 268 267 264 265 269 276 284 292 294 294 295